Radiation Dose at Monitoring Post of Fukushima Daini Nuclear Power Station
Date,Time,MP-1(microSv/h),MP-2(microSv/h),MP-3(microSv/h),MP-4(microSv/h),MP-5(microSv/h),MP-6(microSv/h),MP-7(microSv/h),Wind Direction,Wind Velocity(m/s),Rain
2016/11/18,00:00,0.413,0.238,0.424,0.386,0.366,0.200,0.172,north-northwest,3.9,No
2016/11/18,00:10,0.414,0.237,0.423,0.387,0.365,0.201,0.171,northwest,4.6,No
2016/11/18,00:20,0.413,0.237,0.426,0.388,0.364,0.200,0.172,north-northwest,3.9,No
2016/11/18,00:30,0.413,0.237,0.423,0.387,0.365,0.201,0.172,northwest,4.6,No
2016/11/18,00:40,0.413,0.237,0.424,0.386,0.364,0.199,0.172,northwest,5.1,No
2016/11/18,00:50,0.415,0.238,0.424,0.386,0.364,0.199,0.172,northwest,4.5,No
2016/11/18,01:00,0.415,0.237,0.425,0.387,0.364,0.198,0.173,northwest,4.9,No
2016/11/18,01:10,0.412,0.238,0.424,0.387,0.364,0.200,0.172,northwest,3.3,No
2016/11/18,01:20,0.413,0.237,0.423,0.386,0.363,0.200,0.172,northwest,3.6,No
2016/11/18,01:30,0.415,0.238,0.425,0.388,0.364,0.200,0.172,northwest,4.0,No
2016/11/18,01:40,0.414,0.237,0.424,0.388,0.365,0.199,0.172,northwest,3.4,No
2016/11/18,01:50,0.412,0.237,0.424,0.387,0.365,0.200,0.171,northwest,2.9,No
2016/11/18,02:00,0.413,0.237,0.422,0.386,0.366,0.199,0.173,west-northwest,3.6,No
2016/11/18,02:10,0.415,0.239,0.426,0.387,0.364,0.201,0.171,west-northwest,3.3,No
2016/11/18,02:20,0.414,0.238,0.423,0.389,0.364,0.199,0.173,west-northwest,2.8,No
2016/11/18,02:30,0.412,0.238,0.422,0.387,0.366,0.199,0.172,northwest,2.8,No
2016/11/18,02:40,0.413,0.238,0.424,0.385,0.364,0.199,0.172,northwest,2.8,No
2016/11/18,02:50,0.417,0.238,0.425,0.386,0.364,0.200,0.172,west-northwest,2.5,No
2016/11/18,03:00,0.414,0.236,0.424,0.388,0.365,0.199,0.171,west-northwest,2.3,No
2016/11/18,03:10,0.411,0.237,0.423,0.387,0.364,0.200,0.171,west-northwest,3.9,No
2016/11/18,03:20,0.412,0.238,0.424,0.385,0.364,0.200,0.171,west,3.3,No
2016/11/18,03:30,0.414,0.239,0.425,0.386,0.363,0.200,0.172,west,3.1,No
2016/11/18,03:40,0.414,0.237,0.425,0.389,0.364,0.199,0.172,west,2.4,No
2016/11/18,03:50,0.413,0.238,0.424,0.386,0.365,0.199,0.173,west-southwest,2.5,No
2016/11/18,04:00,0.413,0.238,0.425,0.386,0.364,0.200,0.171,southwest,2.4,No
2016/11/18,04:10,0.414,0.237,0.424,0.386,0.364,0.200,0.171,west-southwest,2.2,No
2016/11/18,04:20,0.414,0.237,0.424,0.386,0.364,0.199,0.172,west-southwest,2.0,No
2016/11/18,04:30,0.412,0.236,0.424,0.387,0.365,0.199,0.171,southwest,1.4,No
2016/11/18,04:40,0.413,0.237,0.423,0.385,0.366,0.200,0.172,west-southwest,1.5,No
2016/11/18,04:50,0.414,0.237,0.425,0.388,0.366,0.199,0.172,west-northwest,1.0,No
2016/11/18,05:00,0.414,0.238,0.424,0.387,0.365,0.199,0.172,north-northwest,1.3,No
2016/11/18,05:10,0.413,0.237,0.424,0.385,0.363,0.199,0.171,northwest,0.8,No
2016/11/18,05:20,0.414,0.239,0.423,0.386,0.364,0.199,0.172,northwest,1.1,No
2016/11/18,05:30,0.413,0.237,0.424,0.386,0.364,0.200,0.172,northwest,2.2,No
2016/11/18,05:40,0.415,0.238,0.425,0.386,0.365,0.199,0.171,north-northwest,2.8,No
2016/11/18,05:50,0.414,0.239,0.423,0.387,0.366,0.200,0.172,north-northwest,1.4,No
2016/11/18,06:00,0.413,0.237,0.422,0.385,0.363,0.200,0.171,north-northwest,2.5,No
2016/11/18,06:10,0.414,0.236,0.424,0.386,0.365,0.200,0.172,northwest,1.7,No
2016/11/18,06:20,0.415,0.237,0.424,0.387,0.363,0.200,0.171,west,1.3,No
2016/11/18,06:30,0.414,0.236,0.422,0.387,0.365,0.200,0.171,west-southwest,1.0,No
2016/11/18,06:40,0.414,0.237,0.423,0.386,0.363,0.200,0.171,west-southwest,0.8,No
2016/11/18,06:50,0.415,0.237,0.422,0.387,0.365,0.200,0.172,-,CALM,No
2016/11/18,07:00,0.414,0.236,0.424,0.387,0.362,0.199,0.171,southeast,2.2,No
2016/11/18,07:10,0.413,0.237,0.423,0.386,0.363,0.199,0.172,south,2.4,No
2016/11/18,07:20,0.412,0.236,0.423,0.387,0.365,0.199,0.171,southwest,2.1,No
2016/11/18,07:30,0.413,0.237,0.423,0.385,0.363,0.201,0.171,south-southwest,2.5,No
2016/11/18,07:40,0.412,0.237,0.424,0.385,0.363,0.199,0.172,south-southwest,3.6,No
2016/11/18,07:50,0.413,0.238,0.424,0.383,0.364,0.198,0.171,south,3.3,No
2016/11/18,08:00,0.414,0.237,0.422,0.385,0.363,0.199,0.170,south-southwest,4.5,No
2016/11/18,08:10,0.414,0.238,0.424,0.386,0.363,0.199,0.171,south-southwest,4.7,No
2016/11/18,08:20,0.415,0.237,0.424,0.384,0.364,0.200,0.171,south,4.8,No
2016/11/18,08:30,0.415,0.237,0.422,0.387,0.365,0.198,0.171,south-southwest,4.9,No
2016/11/18,08:40,0.414,0.237,0.422,0.384,0.363,0.199,0.172,south,4.5,No
2016/11/18,08:50,0.415,0.236,0.425,0.387,0.366,0.199,0.171,south,2.9,No
2016/11/18,09:00,0.412,0.238,0.424,0.385,0.364,0.198,0.172,south,3.1,No
2016/11/18,09:10,0.411,0.237,0.420,0.386,0.363,0.199,0.171,south,2.4,No
2016/11/18,09:20,0.413,0.236,0.423,0.384,0.365,0.199,0.172,south,4.0,No
2016/11/18,09:30,0.414,0.238,0.423,0.386,0.365,0.199,0.172,south,4.4,No
2016/11/18,09:40,0.410,0.236,0.422,0.382,0.363,0.199,0.171,south,3.4,No
2016/11/18,09:50,0.412,0.236,0.424,0.385,0.364,0.199,0.172,south,3.9,No
2016/11/18,10:00,0.408,0.236,0.420,0.383,0.364,0.199,0.173,south,4.8,No
2016/11/18,10:10,0.412,0.237,0.423,0.386,0.364,0.200,0.171,south,6.3,No
2016/11/18,10:20,0.409,0.235,0.422,0.385,0.363,0.200,0.171,south,6.1,No
2016/11/18,10:30,0.412,0.237,0.422,0.386,0.365,0.200,0.171,south-southeast,5.5,No
2016/11/18,10:40,0.408,0.235,0.424,0.385,0.363,0.200,0.172,south-southeast,6.6,No
2016/11/18,10:50,0.411,0.238,0.422,0.385,0.362,0.199,0.172,south,7.5,No
2016/11/18,11:00,0.410,0.236,0.422,0.385,0.363,0.199,0.173,south,6.8,No
2016/11/18,11:10,0.412,0.238,0.423,0.385,0.364,0.200,0.172,south,7.6,No
2016/11/18,11:20,0.413,0.237,0.422,0.386,0.364,0.199,0.172,south-southeast,7.3,No
2016/11/18,11:30,0.411,0.237,0.423,0.388,0.365,0.199,0.172,south,8.2,No
2016/11/18,11:40,0.413,0.236,0.422,0.384,0.363,0.199,0.171,south,9.8,No
2016/11/18,11:50,0.410,0.238,0.422,0.386,0.363,0.199,0.172,south,9.8,No
2016/11/18,12:00,0.413,0.237,0.423,0.385,0.365,0.199,0.172,south,11.7,No
2016/11/18,12:10,0.410,0.237,0.423,0.387,0.363,0.199,0.172,south,10.0,No
2016/11/18,12:20,0.414,0.239,0.421,0.386,0.365,0.199,0.171,south,9.3,No
2016/11/18,12:30,0.412,0.237,0.421,0.388,0.363,0.200,0.171,south,9.3,No
2016/11/18,12:40,0.414,0.237,0.418,0.384,0.365,0.200,0.172,south,10.1,No
2016/11/18,12:50,0.411,0.237,0.422,0.387,0.365,0.200,0.171,south,11.2,No
2016/11/18,13:00,0.414,0.238,0.418,0.384,0.366,0.199,0.172,south-southwest,11.0,No
2016/11/18,13:10,0.411,0.237,0.422,0.386,0.368,0.200,0.172,south-southwest,11.9,No
2016/11/18,13:20,0.414,0.237,0.419,0.385,0.363,0.201,0.172,south-southwest,11.3,No
2016/11/18,13:30,0.412,0.237,0.422,0.386,0.366,0.201,0.172,south,8.9,No
2016/11/18,13:40,0.413,0.236,0.420,0.385,0.365,0.200,0.172,south,10.3,No
2016/11/18,13:50,0.414,0.238,0.424,0.387,0.366,0.199,0.172,south,8.9,No
2016/11/18,14:00,0.415,0.235,0.423,0.385,0.364,0.201,0.172,south,8.6,No
2016/11/18,14:10,0.414,0.239,0.424,0.390,0.366,0.199,0.173,south,8.4,No
2016/11/18,14:20,0.414,0.237,0.423,0.386,0.365,0.199,0.172,south,9.4,No
2016/11/18,14:30,0.413,0.238,0.423,0.388,0.365,0.199,0.173,south,7.8,No
2016/11/18,14:40,0.414,0.238,0.424,0.386,0.365,0.199,0.171,south,8.4,No
2016/11/18,14:50,0.415,0.237,0.421,0.386,0.365,0.199,0.173,south,8.6,No
2016/11/18,15:00,0.411,0.238,0.424,0.389,0.364,0.197,0.172,south,6.7,No
2016/11/18,15:10,0.413,0.238,0.424,0.387,0.367,0.200,0.173,south,6.2,No
2016/11/18,15:20,0.412,0.238,0.424,0.390,0.364,0.199,0.172,south,4.6,No
2016/11/18,15:30,0.413,0.236,0.424,0.387,0.366,0.200,0.172,south,2.3,No
2016/11/18,15:40,0.414,0.238,0.423,0.388,0.366,0.198,0.172,south-southwest,5.9,No
2016/11/18,15:50,0.412,0.238,0.424,0.387,0.364,0.200,0.173,south,6.2,No
2016/11/18,16:00,0.412,0.237,0.423,0.387,0.365,0.200,0.172,south-southwest,4.1,No
2016/11/18,16:10,0.414,0.238,0.423,0.390,0.365,0.200,0.171,south-southwest,3.7,No
2016/11/18,16:20,0.413,0.237,0.424,0.387,0.364,0.199,0.172,south,9.2,No
2016/11/18,16:30,0.414,0.236,0.422,0.389,0.366,0.199,0.172,south-southwest,10.3,No
2016/11/18,16:40,0.411,0.238,0.425,0.388,0.364,0.200,0.172,south-southwest,10.5,No
2016/11/18,16:50,0.413,0.238,0.423,0.388,0.366,0.200,0.172,south-southwest,9.7,No
2016/11/18,17:00,0.413,0.237,0.424,0.387,0.367,0.200,0.173,south-southwest,10.7,No
2016/11/18,17:10,0.412,0.237,0.424,0.389,0.365,0.199,0.172,south-southwest,11.6,No
2016/11/18,17:20,0.411,0.237,0.422,0.388,0.366,0.201,0.173,south-southwest,10.9,No
2016/11/18,17:30,0.413,0.237,0.423,0.388,0.367,0.200,0.173,south-southwest,9.9,No
2016/11/18,17:40,0.412,0.236,0.421,0.386,0.365,0.199,0.172,south-southwest,10.0,No
2016/11/18,17:50,0.412,0.237,0.423,0.390,0.369,0.200,0.172,south-southwest,9.3,No
2016/11/18,18:00,0.414,0.238,0.424,0.388,0.365,0.200,0.172,south-southwest,9.2,No
2016/11/18,18:10,0.413,0.237,0.424,0.386,0.364,0.200,0.173,south-southwest,8.7,No
2016/11/18,18:20,0.414,0.237,0.424,0.388,0.368,0.201,0.173,south-southwest,7.3,No
2016/11/18,18:30,0.413,0.238,0.424,0.387,0.365,0.199,0.173,south-southwest,6.7,No
2016/11/18,18:40,0.414,0.238,0.424,0.387,0.365,0.199,0.171,south-southwest,5.9,No
2016/11/18,18:50,0.413,0.237,0.426,0.389,0.365,0.200,0.173,south-southwest,6.4,No
2016/11/18,19:00,0.416,0.238,0.423,0.389,0.365,0.200,0.173,south-southwest,6.9,No
2016/11/18,19:10,0.416,0.237,0.424,0.387,0.365,0.200,0.173,south-southwest,5.5,No
2016/11/18,19:20,0.414,0.238,0.425,0.390,0.367,0.201,0.173,southwest,3.7,No
2016/11/18,19:30,0.413,0.237,0.424,0.387,0.363,0.200,0.172,southwest,5.3,No
2016/11/18,19:40,0.414,0.237,0.426,0.387,0.367,0.199,0.172,southwest,5.6,No
2016/11/18,19:50,0.414,0.238,0.422,0.389,0.366,0.200,0.173,southwest,6.4,No
2016/11/18,20:00,0.415,0.237,0.423,0.387,0.364,0.199,0.172,south-southwest,6.2,No
2016/11/18,20:10,0.416,0.238,0.425,0.389,0.366,0.200,0.172,southwest,6.2,No
2016/11/18,20:20,0.414,0.236,0.423,0.388,0.367,0.201,0.172,southwest,6.1,No
2016/11/18,20:30,0.413,0.238,0.423,0.387,0.366,0.199,0.173,southwest,6.7,No
2016/11/18,20:40,0.415,0.236,0.422,0.389,0.367,0.200,0.172,southwest,6.9,No
2016/11/18,20:50,0.416,0.238,0.425,0.388,0.363,0.199,0.173,southwest,7.6,No
2016/11/18,21:00,0.413,0.237,0.423,0.387,0.363,0.200,0.172,southwest,7.8,No
2016/11/18,21:10,0.413,0.238,0.425,0.387,0.363,0.199,0.173,southwest,7.7,No
2016/11/18,21:20,0.413,0.238,0.423,0.387,0.364,0.201,0.173,southwest,7.0,No
2016/11/18,21:30,0.412,0.237,0.425,0.386,0.365,0.199,0.172,southwest,7.4,No
2016/11/18,21:40,0.415,0.238,0.424,0.388,0.366,0.201,0.172,southwest,7.0,No
2016/11/18,21:50,0.415,0.237,0.424,0.386,0.365,0.200,0.173,southwest,8.1,No
2016/11/18,22:00,0.413,0.236,0.424,0.387,0.364,0.200,0.172,southwest,9.9,No
2016/11/18,22:10,0.414,0.238,0.424,0.388,0.362,0.199,0.171,southwest,9.3,No
2016/11/18,22:20,0.417,0.237,0.423,0.387,0.366,0.200,0.173,southwest,9.4,No
2016/11/18,22:30,0.414,0.238,0.426,0.388,0.364,0.200,0.172,southwest,8.6,No
2016/11/18,22:40,0.414,0.237,0.423,0.388,0.366,0.199,0.172,southwest,8.1,No
2016/11/18,22:50,0.414,0.237,0.423,0.387,0.363,0.199,0.171,southwest,8.2,No
2016/11/18,23:00,0.413,0.238,0.421,0.389,0.364,0.200,0.172,southwest,8.6,No
2016/11/18,23:10,0.415,0.237,0.424,0.387,0.367,0.199,0.172,southwest,7.9,No
2016/11/18,23:20,0.415,0.238,0.424,0.389,0.365,0.200,0.173,southwest,6.8,No
2016/11/18,23:30,0.411,0.238,0.423,0.386,0.364,0.199,0.172,southwest,6.7,No
2016/11/18,23:40,0.414,0.237,0.425,0.386,0.365,0.199,0.172,south-southwest,5.0,No
2016/11/18,23:50,0.412,0.237,0.422,0.388,0.364,0.200,0.172,southwest,5.9,No
